PIA702 EGCC-OPIS

Flight info

Callsign PIA702
Flight time 7h 25m
Altitude 35000
Route DESIG L603 LAMSO DCT RKN DCT NOMKA L620 SUVUT DCT OMELO DCT VLM DCT TIBLA DCT ROMIS DCT KOPAT DCT KARIL DCT UDROS UN743 GAKSU UT310 SIN UN644 KARDE UL851 TBN UR317 REBLO DCT TABAS DCT MATAL M11 LUSAL N701 BAKUV L850 DUKAN B449 DOLOS B475 NINOP A909 LEMOD N644 REGET J139 KALMI
Aircraft B772/H-SDE2E3FGHIJ5LORVWXY/LB1D1

Departure

Time 2026-05-09 10:36
Airport Manchester Airport (EGCC)

Arrival

Time 2026-05-09 18:02
Airport Islamabad International Airport (OPIS)
Time Latitude Longitude Altitude Speed Heading
2026-05-09 07:48 53.36760 -2.28767 237 ft 0 kts 313°
2026-05-09 10:16 53.36753 -2.28754 237 ft 2 kts 313°
2026-05-09 10:16 53.36744 -2.28739 237 ft 2 kts 313°
2026-05-09 10:16 53.36734 -2.28722 237 ft 2 kts 310°
2026-05-09 10:16 53.36729 -2.28711 237 ft 2 kts 302°
2026-05-09 10:18 53.36730 -2.28716 237 ft 4 kts 304°
2026-05-09 10:18 53.36717 -2.28690 237 ft 4 kts 300°
2026-05-09 10:18 53.36710 -2.28659 237 ft 4 kts 255°
2026-05-09 10:19 53.36722 -2.28624 237 ft 4 kts 226°
2026-05-09 10:19 53.36736 -2.28601 237 ft 1 kts 225°
2026-05-09 10:19 53.36738 -2.28597 237 ft 0 kts 225°
2026-05-09 10:25 53.36727 -2.28616 237 ft 8 kts 225°
2026-05-09 10:25 53.36687 -2.28683 237 ft 8 kts 226°
2026-05-09 10:26 53.36648 -2.28751 237 ft 8 kts 226°
2026-05-09 10:26 53.36613 -2.28783 237 ft 5 kts 186°
2026-05-09 10:26 53.36602 -2.28780 237 ft 2 kts 168°
2026-05-09 10:26 53.36565 -2.28727 237 ft 8 kts 132°
2026-05-09 10:27 53.36528 -2.28659 237 ft 8 kts 133°
2026-05-09 10:27 53.36490 -2.28592 237 ft 8 kts 134°
2026-05-09 10:27 53.36451 -2.28528 237 ft 8 kts 135°
2026-05-09 10:27 53.36403 -2.28500 237 ft 8 kts 187°
2026-05-09 10:28 53.36349 -2.28500 237 ft 8 kts 165°
2026-05-09 10:28 53.36308 -2.28443 237 ft 8 kts 133°
2026-05-09 10:28 53.36270 -2.28376 237 ft 8 kts 133°
2026-05-09 10:28 53.36232 -2.28311 237 ft 8 kts 135°
2026-05-09 10:29 53.36194 -2.28244 237 ft 8 kts 133°
2026-05-09 10:29 53.36156 -2.28179 237 ft 8 kts 134°
2026-05-09 10:29 53.36118 -2.28114 237 ft 8 kts 134°
2026-05-09 10:29 53.36080 -2.28047 237 ft 8 kts 134°
2026-05-09 10:30 53.36042 -2.27982 237 ft 8 kts 135°
2026-05-09 10:30 53.36005 -2.27916 237 ft 8 kts 132°
2026-05-09 10:30 53.35966 -2.27860 237 ft 7 kts 149°
2026-05-09 10:30 53.35913 -2.27845 237 ft 10 kts 179°
2026-05-09 10:31 53.35845 -2.27799 237 ft 11 kts 138°
2026-05-09 10:31 53.35798 -2.27699 237 ft 11 kts 128°
2026-05-09 10:31 53.35734 -2.27637 237 ft 11 kts 160°
2026-05-09 10:31 53.35665 -2.27589 237 ft 11 kts 146°
2026-05-09 10:32 53.35611 -2.27508 238 ft 9 kts 140°
2026-05-09 10:32 53.35590 -2.27480 238 ft 0 kts 141°
2026-05-09 10:33 53.35572 -2.27456 238 ft 8 kts 142°
2026-05-09 10:33 53.35517 -2.27384 242 ft 10 kts 141°
2026-05-09 10:33 53.35461 -2.27309 246 ft 10 kts 141°
2026-05-09 10:33 53.35397 -2.27225 240 ft 15 kts 143°
2026-05-09 10:34 53.35298 -2.27198 238 ft 15 kts 189°
2026-05-09 10:34 53.35093 -2.27269 239 ft 11 kts 190°
2026-05-09 10:34 53.35030 -2.27290 241 ft 8 kts 200°
2026-05-09 10:35 53.34995 -2.27353 240 ft 7 kts 232°
2026-05-09 10:35 53.34946 -2.27453 239 ft 23 kts 231°
2026-05-09 10:35 53.34707 -2.27948 236 ft 95 kts 231°
2026-05-09 10:35 53.34119 -2.29163 231 ft 167 kts 231°
2026-05-09 10:36 53.33283 -2.30866 597 ft 198 kts 230°
2026-05-09 10:36 53.32398 -2.32658 1509 ft 203 kts 229°
2026-05-09 10:36 53.31582 -2.34512 2448 ft 197 kts 245°
2026-05-09 10:36 53.31458 -2.36897 2765 ft 224 kts 283°
2026-05-09 10:37 53.32268 -2.39179 3232 ft 236 kts 316°
2026-05-09 10:37 53.33695 -2.40569 3849 ft 240 kts 340°
2026-05-09 10:37 53.35324 -2.41369 4468 ft 245 kts 345°
2026-05-09 10:37 53.36975 -2.42149 4930 ft 249 kts 343°
2026-05-09 10:38 53.38701 -2.43035 4993 ft 269 kts 342°
2026-05-09 10:38 53.40466 -2.43992 5028 ft 270 kts 341°
2026-05-09 10:38 53.42255 -2.44960 5348 ft 270 kts 341°
2026-05-09 10:38 53.44096 -2.45663 5793 ft 274 kts 359°
2026-05-09 10:39 53.45924 -2.44885 6254 ft 277 kts 34°
2026-05-09 10:39 53.47197 -2.42507 6706 ft 277 kts 69°
2026-05-09 10:39 53.47531 -2.39377 7232 ft 273 kts 95°
2026-05-09 10:39 53.47257 -2.36219 7703 ft 275 kts 103°
2026-05-09 10:40 53.46839 -2.33054 8085 ft 278 kts 105°
2026-05-09 10:40 53.46427 -2.29868 8573 ft 280 kts 104°
2026-05-09 10:40 53.46045 -2.26643 9051 ft 282 kts 103°
2026-05-09 10:40 53.45672 -2.23380 9642 ft 287 kts 103°
2026-05-09 10:41 53.45300 -2.20078 10339 ft 287 kts 103°
2026-05-09 10:41 53.44923 -2.16754 10638 ft 302 kts 103°
2026-05-09 10:41 53.44518 -2.13220 10749 ft 315 kts 103°
2026-05-09 10:41 53.44103 -2.09597 11064 ft 317 kts 102°
2026-05-09 10:42 53.43685 -2.05953 11511 ft 317 kts 102°
2026-05-09 10:42 53.43265 -2.02292 11926 ft 321 kts 102°
2026-05-09 10:42 53.42840 -1.98597 12374 ft 326 kts 103°
2026-05-09 10:42 53.42405 -1.94841 12826 ft 330 kts 103°
2026-05-09 10:43 53.41964 -1.91051 13214 ft 335 kts 103°
2026-05-09 10:43 53.41505 -1.87131 13303 ft 348 kts 103°
2026-05-09 10:43 53.41028 -1.83083 13449 ft 359 kts 103°
2026-05-09 10:43 53.40550 -1.79021 13940 ft 358 kts 103°
2026-05-09 10:44 53.40069 -1.74935 14418 ft 356 kts 103°
2026-05-09 10:44 53.39589 -1.70862 14895 ft 357 kts 103°
2026-05-09 10:44 53.39102 -1.66751 15308 ft 361 kts 103°
2026-05-09 10:44 53.38604 -1.62576 15723 ft 368 kts 103°
2026-05-09 10:45 53.38100 -1.58367 16134 ft 370 kts 103°
2026-05-09 10:46 53.35987 -1.40878 17928 ft 393 kts 103°
2026-05-09 10:46 53.35437 -1.36352 18430 ft 397 kts 103°
2026-05-09 10:46 53.34882 -1.31804 18859 ft 403 kts 103°
2026-05-09 10:46 53.34321 -1.27232 19301 ft 409 kts 103°
2026-05-09 10:47 53.33743 -1.22528 19757 ft 414 kts 103°
2026-05-09 10:47 53.33157 -1.17784 20066 ft 420 kts 103°
2026-05-09 10:47 53.32559 -1.12959 20125 ft 426 kts 103°
2026-05-09 10:47 53.31955 -1.08098 20178 ft 428 kts 103°
2026-05-09 10:48 53.31345 -1.03212 20196 ft 430 kts 104°
2026-05-09 10:48 53.30731 -0.98299 20210 ft 432 kts 104°
2026-05-09 10:48 53.30113 -0.93381 20224 ft 433 kts 104°
2026-05-09 10:48 53.29492 -0.88444 20321 ft 432 kts 104°
2026-05-09 10:49 53.28873 -0.83531 20470 ft 432 kts 104°
2026-05-09 10:49 53.28247 -0.78595 20490 ft 434 kts 104°
2026-05-09 10:49 53.27618 -0.73653 20540 ft 435 kts 104°
2026-05-09 10:49 53.26993 -0.68774 20653 ft 434 kts 104°
2026-05-09 10:50 53.26363 -0.63859 21162 ft 431 kts 104°
2026-05-09 10:50 53.25728 -0.58929 21671 ft 433 kts 104°
2026-05-09 10:50 53.25090 -0.53992 22218 ft 435 kts 104°
2026-05-09 10:50 53.24449 -0.49047 22745 ft 437 kts 104°
2026-05-09 10:51 53.23809 -0.44128 23305 ft 438 kts 104°
2026-05-09 10:51 53.23150 -0.39083 23828 ft 440 kts 104°
2026-05-09 10:51 53.22496 -0.34090 24292 ft 441 kts 104°
2026-05-09 10:51 53.21838 -0.29086 24766 ft 441 kts 104°
2026-05-09 10:52 53.21176 -0.24070 25246 ft 442 kts 104°
2026-05-09 10:52 53.20513 -0.19061 25735 ft 442 kts 104°
2026-05-09 10:52 53.19848 -0.14049 26220 ft 443 kts 103°
2026-05-09 10:52 53.19253 -0.09573 26677 ft 443 kts 103°
2026-05-09 10:53 53.18581 -0.04559 27159 ft 445 kts 104°
2026-05-09 10:53 53.17817 0.00507 27233 ft 456 kts 107°
2026-05-09 10:53 53.16941 0.05670 27298 ft 466 kts 106°
2026-05-09 10:53 53.16132 0.10855 27339 ft 467 kts 104°
2026-05-09 10:54 53.15392 0.16141 27346 ft 466 kts 103°
2026-05-09 10:54 53.14694 0.21403 27369 ft 465 kts 103°
2026-05-09 10:54 53.13997 0.26694 27424 ft 471 kts 103°
2026-05-09 10:54 53.13274 0.32053 27533 ft 478 kts 103°
2026-05-09 10:55 53.12521 0.37483 27667 ft 484 kts 103°
2026-05-09 10:55 53.11741 0.42970 27937 ft 488 kts 104°
2026-05-09 10:55 53.10953 0.48416 28306 ft 489 kts 104°
2026-05-09 10:55 53.10150 0.53906 28677 ft 490 kts 103°
2026-05-09 10:56 53.09337 0.59438 28984 ft 491 kts 103°
2026-05-09 10:56 53.08517 0.65001 29154 ft 495 kts 103°
2026-05-09 10:56 53.07704 0.70504 29305 ft 494 kts 103°
2026-05-09 10:56 53.06877 0.76091 29434 ft 498 kts 104°
2026-05-09 10:57 53.06046 0.81695 29646 ft 501 kts 104°
2026-05-09 10:57 53.05207 0.87337 29952 ft 502 kts 104°
2026-05-09 10:57 53.04363 0.92992 30232 ft 503 kts 104°
2026-05-09 10:57 53.03517 0.98635 30501 ft 503 kts 104°
2026-05-09 10:58 53.02669 1.04281 30794 ft 503 kts 104°
2026-05-09 10:58 53.01827 1.09859 31089 ft 502 kts 104°
2026-05-09 10:58 53.00976 1.15484 31375 ft 503 kts 104°
2026-05-09 10:58 53.00118 1.21125 31669 ft 503 kts 104°
2026-05-09 10:59 52.99261 1.26743 31968 ft 502 kts 104°
2026-05-09 10:59 52.98400 1.32366 32280 ft 502 kts 104°
2026-05-09 10:59 52.97539 1.37969 32602 ft 501 kts 104°
2026-05-09 10:59 52.96672 1.43592 32904 ft 501 kts 104°
2026-05-09 11:00 52.95807 1.49182 33207 ft 500 kts 104°
2026-05-09 11:00 52.94948 1.54721 33541 ft 500 kts 104°
2026-05-09 11:00 52.94079 1.60298 33862 ft 499 kts 104°
2026-05-09 11:00 52.93207 1.65873 34148 ft 499 kts 104°
2026-05-09 11:01 52.92333 1.71450 34407 ft 499 kts 105°
2026-05-09 11:01 52.91458 1.77007 34652 ft 499 kts 105°
2026-05-09 11:01 52.90578 1.82583 34901 ft 499 kts 105°
2026-05-09 11:01 52.89698 1.88142 35132 ft 499 kts 105°
2026-05-09 11:02 52.88823 1.93650 35352 ft 499 kts 105°
2026-05-09 11:02 52.87935 1.99220 35599 ft 499 kts 105°
2026-05-09 11:02 52.87046 2.04774 35834 ft 499 kts 105°
2026-05-09 11:02 52.86154 2.10334 36075 ft 499 kts 105°
2026-05-09 11:03 52.85272 2.15806 36289 ft 498 kts 106°
2026-05-09 11:03 52.84373 2.21370 36512 ft 498 kts 106°
2026-05-09 11:03 52.83475 2.26909 36723 ft 499 kts 105°
2026-05-09 11:03 52.82571 2.32468 36876 ft 500 kts 106°
2026-05-09 11:04 52.81668 2.37999 37065 ft 500 kts 106°
2026-05-09 11:04 52.79840 2.49162 37098 ft 503 kts 105°
2026-05-09 11:05 52.78302 2.60380 37152 ft 500 kts 102°
2026-05-09 11:05 52.76912 2.71559 37155 ft 499 kts 103°
2026-05-09 11:06 52.75441 2.82815 37161 ft 498 kts 103°
2026-05-09 11:06 52.73994 2.94001 37147 ft 498 kts 103°
2026-05-09 11:07 52.72535 3.05125 37153 ft 498 kts 104°
2026-05-09 11:07 52.70951 3.16251 37149 ft 497 kts 104°
2026-05-09 11:08 52.69339 3.27270 37150 ft 497 kts 105°
2026-05-09 11:08 52.67719 3.38362 37143 ft 497 kts 105°
2026-05-09 11:09 52.66103 3.49462 37154 ft 496 kts 104°
2026-05-09 11:09 52.64496 3.60456 37147 ft 496 kts 105°
2026-05-09 11:10 52.62864 3.71533 37148 ft 496 kts 105°
2026-05-09 11:10 52.61227 3.82560 37152 ft 496 kts 105°
2026-05-09 11:11 52.59586 3.93528 37155 ft 496 kts 105°
2026-05-09 11:11 52.57925 4.04556 37144 ft 496 kts 105°
2026-05-09 11:12 52.56250 4.15599 37145 ft 496 kts 105°
2026-05-09 11:12 52.54578 4.26548 37146 ft 496 kts 105°
2026-05-09 11:13 52.52965 4.37043 37136 ft 496 kts 105°
2026-05-09 11:13 52.51264 4.48035 37141 ft 496 kts 105°
2026-05-09 11:14 52.49551 4.59028 37149 ft 496 kts 105°
2026-05-09 11:14 52.47836 4.69962 37150 ft 496 kts 105°
2026-05-09 11:15 52.46105 4.80930 37147 ft 496 kts 106°
2026-05-09 11:15 52.44364 4.91889 37148 ft 496 kts 106°
2026-05-09 11:16 52.42627 5.02747 37155 ft 495 kts 106°
2026-05-09 11:16 52.40867 5.13675 37142 ft 495 kts 106°
2026-05-09 11:17 52.39098 5.24591 37155 ft 495 kts 106°
2026-05-09 11:17 52.37321 5.35486 37149 ft 495 kts 106°
2026-05-09 11:18 52.35542 5.46319 37158 ft 495 kts 106°
2026-05-09 11:18 52.33745 5.57200 37150 ft 495 kts 106°
2026-05-09 11:19 52.32240 5.66252 37154 ft 495 kts 107°
2026-05-09 11:19 52.30115 5.78961 37144 ft 495 kts 107°
2026-05-09 11:20 52.28294 5.89777 37132 ft 495 kts 107°
2026-05-09 11:20 52.26767 5.98796 37135 ft 495 kts 107°
2026-05-09 11:21 52.24619 6.11402 37139 ft 495 kts 107°
2026-05-09 11:21 52.23064 6.20470 37133 ft 495 kts 107°
2026-05-09 11:22 52.21210 6.31225 37144 ft 495 kts 107°
2026-05-09 11:22 52.19334 6.42042 37143 ft 495 kts 107°
2026-05-09 11:23 52.17449 6.52843 37135 ft 495 kts 107°
2026-05-09 11:23 52.15553 6.63641 37133 ft 495 kts 107°
2026-05-09 11:24 52.13661 6.74363 37137 ft 495 kts 107°
2026-05-09 11:24 52.11795 6.85172 37135 ft 495 kts 106°
2026-05-09 11:25 52.10009 6.96006 37135 ft 495 kts 106°
2026-05-09 11:25 52.08227 7.06832 37134 ft 495 kts 106°
2026-05-09 11:26 52.06429 7.17593 37145 ft 495 kts 106°
2026-05-09 11:26 52.04601 7.28390 37137 ft 495 kts 106°
2026-05-09 11:27 52.02757 7.39191 37148 ft 495 kts 107°
2026-05-09 11:27 52.00907 7.49973 37143 ft 495 kts 107°
2026-05-09 11:28 51.99060 7.60683 37130 ft 495 kts 107°
2026-05-09 11:28 51.97194 7.71435 37125 ft 495 kts 107°
2026-05-09 11:29 51.95313 7.82210 37132 ft 495 kts 107°
2026-05-09 11:29 51.93429 7.92938 37124 ft 495 kts 107°
2026-05-09 11:30 51.91634 8.03094 37131 ft 495 kts 107°
2026-05-09 11:30 51.89736 8.13770 37128 ft 495 kts 107°
2026-05-09 11:31 51.87825 8.24465 37138 ft 495 kts 107°
2026-05-09 11:31 51.85897 8.35186 37132 ft 495 kts 107°
2026-05-09 11:32 51.83961 8.45887 37143 ft 495 kts 107°
2026-05-09 11:32 51.82014 8.56587 37139 ft 495 kts 107°
2026-05-09 11:33 51.80071 8.67205 37141 ft 495 kts 107°
2026-05-09 11:33 51.77118 8.83222 37143 ft 495 kts 107°
2026-05-09 11:34 51.75138 8.93889 37149 ft 496 kts 107°
2026-05-09 11:34 51.73158 9.04487 37145 ft 496 kts 107°
2026-05-09 11:35 51.71153 9.15162 37137 ft 496 kts 107°
2026-05-09 11:35 51.69143 9.25808 37144 ft 496 kts 107°
2026-05-09 11:36 51.67135 9.36378 37159 ft 496 kts 107°
2026-05-09 11:36 51.65106 9.47000 37150 ft 496 kts 107°
2026-05-09 11:37 51.63065 9.57624 37158 ft 496 kts 107°
2026-05-09 11:37 51.61010 9.68262 37155 ft 496 kts 107°
2026-05-09 11:38 51.58960 9.78778 37154 ft 493 kts 106°
2026-05-09 11:38 51.56907 9.89290 37167 ft 492 kts 106°
2026-05-09 11:39 51.54854 9.99776 37183 ft 492 kts 106°
2026-05-09 11:40 51.51748 10.15499 37185 ft 492 kts 106°
2026-05-09 11:40 51.49660 10.25986 37175 ft 493 kts 106°
2026-05-09 11:41 51.47575 10.36409 37180 ft 494 kts 106°
2026-05-09 11:41 51.45462 10.46925 37181 ft 494 kts 106°
2026-05-09 11:42 51.43534 10.57477 37153 ft 493 kts 103°
2026-05-09 11:42 51.41887 10.68151 37188 ft 493 kts 102°
2026-05-09 11:43 51.40241 10.78769 37173 ft 494 kts 103°
2026-05-09 11:43 51.38507 10.89482 37180 ft 494 kts 103°
2026-05-09 11:44 51.36784 11.00091 37158 ft 494 kts 103°
2026-05-09 11:44 51.35070 11.10747 37199 ft 494 kts 103°
2026-05-09 11:45 51.33346 11.21406 37183 ft 495 kts 103°
2026-05-09 11:45 51.31614 11.32011 37202 ft 495 kts 103°
2026-05-09 11:46 51.29865 11.42669 37162 ft 496 kts 103°
2026-05-09 11:46 51.28100 11.53323 37166 ft 495 kts 103°
2026-05-09 11:47 51.26318 11.63919 37158 ft 496 kts 103°
2026-05-09 11:47 51.24513 11.74571 37146 ft 496 kts 103°
2026-05-09 11:48 51.22702 11.85217 37118 ft 496 kts 103°
2026-05-09 11:48 51.20890 11.95821 37157 ft 495 kts 103°
2026-05-09 11:49 51.19070 12.06408 37205 ft 495 kts 103°
2026-05-09 11:49 51.17240 12.16986 37224 ft 494 kts 104°
2026-05-09 11:50 51.15398 12.27569 37213 ft 495 kts 104°
2026-05-09 11:50 51.13544 12.38154 37214 ft 496 kts 104°
2026-05-09 11:51 51.11685 12.48706 37178 ft 496 kts 104°
2026-05-09 11:51 51.09802 12.59314 37186 ft 496 kts 104°
2026-05-09 11:52 51.07915 12.69903 37144 ft 498 kts 104°
2026-05-09 11:52 51.06028 12.80435 37172 ft 497 kts 104°
2026-05-09 11:53 51.04121 12.91014 37215 ft 496 kts 104°
2026-05-09 11:53 51.02208 13.01571 37198 ft 497 kts 105°
2026-05-09 11:54 51.00295 13.12061 37196 ft 497 kts 105°
2026-05-09 11:54 50.98362 13.22605 37192 ft 498 kts 105°
2026-05-09 11:55 50.96411 13.33160 37203 ft 498 kts 105°
2026-05-09 11:56 50.90515 13.64752 37196 ft 498 kts 105°
2026-05-09 11:57 50.88542 13.75211 37193 ft 498 kts 106°
2026-05-09 11:57 50.86531 13.85813 37189 ft 498 kts 106°
2026-05-09 11:58 50.84529 13.96217 37195 ft 498 kts 108°
2026-05-09 11:58 50.81903 14.06303 37186 ft 491 kts 120°
2026-05-09 11:59 50.78114 14.15377 37191 ft 499 kts 126°
2026-05-09 11:59 50.74868 14.22915 37193 ft 495 kts 122°
2026-05-09 12:00 50.71429 14.32436 37209 ft 503 kts 118°
2026-05-09 12:00 50.68070 14.42131 37203 ft 509 kts 120°
2026-05-09 12:01 50.64559 14.51764 37186 ft 501 kts 121°
2026-05-09 12:01 50.61005 14.61156 37189 ft 498 kts 121°
2026-05-09 12:02 50.57437 14.70502 37184 ft 498 kts 121°
2026-05-09 12:02 50.53886 14.79816 37188 ft 498 kts 121°
2026-05-09 12:03 50.50288 14.89243 37185 ft 499 kts 122°
2026-05-09 12:03 50.46727 14.98544 37177 ft 501 kts 122°
2026-05-09 12:04 50.43124 15.07922 37185 ft 502 kts 122°
2026-05-09 12:04 50.39503 15.17306 37193 ft 503 kts 122°
2026-05-09 12:05 50.35883 15.26654 37185 ft 504 kts 122°
2026-05-09 12:05 50.32235 15.36044 37179 ft 504 kts 122°
2026-05-09 12:06 50.28578 15.45423 37181 ft 504 kts 122°
2026-05-09 12:06 50.24916 15.54778 37182 ft 504 kts 123°
2026-05-09 12:07 50.21244 15.64127 37181 ft 504 kts 123°
2026-05-09 12:07 50.17574 15.73438 37182 ft 503 kts 123°
2026-05-09 12:08 50.13912 15.82696 37183 ft 503 kts 123°
2026-05-09 12:08 50.10232 15.91967 37181 ft 502 kts 123°
2026-05-09 12:09 50.06536 16.01244 37202 ft 502 kts 123°
2026-05-09 12:09 50.02860 16.10440 37174 ft 502 kts 123°
2026-05-09 12:10 49.95446 16.28887 37163 ft 503 kts 123°
2026-05-09 12:11 49.91733 16.38079 37161 ft 503 kts 123°
2026-05-09 12:11 49.88029 16.47216 37178 ft 503 kts 123°
2026-05-09 12:12 49.84293 16.56401 37157 ft 503 kts 124°
2026-05-09 12:12 49.80546 16.65587 37170 ft 503 kts 124°
2026-05-09 12:13 49.76737 16.74587 37167 ft 502 kts 126°
2026-05-09 12:13 49.72662 16.83388 37147 ft 502 kts 128°
2026-05-09 12:14 49.68549 16.92127 37167 ft 503 kts 127°
2026-05-09 12:14 49.64485 17.00876 37139 ft 503 kts 127°
2026-05-09 12:15 49.60424 17.09695 37156 ft 503 kts 127°
2026-05-09 12:15 49.56366 17.18491 37159 ft 503 kts 127°
2026-05-09 12:16 49.52318 17.27220 37159 ft 503 kts 127°
2026-05-09 12:16 49.48230 17.35996 37156 ft 503 kts 127°
2026-05-09 12:17 49.44137 17.44753 37155 ft 504 kts 128°
2026-05-09 12:17 49.40056 17.53457 37154 ft 504 kts 128°
2026-05-09 12:18 49.35957 17.62173 37150 ft 504 kts 128°
2026-05-09 12:18 49.31832 17.70916 37150 ft 504 kts 128°
2026-05-09 12:19 49.27738 17.79565 37143 ft 504 kts 128°
2026-05-09 12:19 49.23600 17.88277 37138 ft 504 kts 128°
2026-05-09 12:20 49.19491 17.96905 37140 ft 504 kts 128°
2026-05-09 12:20 49.15374 18.05618 37136 ft 505 kts 125°
2026-05-09 12:21 49.12463 18.15243 37132 ft 505 kts 101°
2026-05-09 12:21 49.12139 18.20582 37158 ft 506 kts 90°
2026-05-09 12:21 49.12207 18.25920 37130 ft 500 kts 89°
2026-05-09 12:22 49.11960 18.36448 37137 ft 502 kts 96°
2026-05-09 12:22 49.11316 18.47184 37124 ft 512 kts 95°
2026-05-09 12:23 49.10849 18.58102 37140 ft 516 kts 96°
2026-05-09 12:23 49.09549 18.68615 37167 ft 503 kts 112°
2026-05-09 12:24 49.06365 18.78146 37118 ft 506 kts 122°
2026-05-09 12:24 49.02971 18.87445 37095 ft 500 kts 118°
2026-05-09 12:25 49.00019 18.97162 37125 ft 509 kts 116°
2026-05-09 12:25 48.97070 19.06973 37102 ft 513 kts 117°
2026-05-09 12:26 48.93930 19.16830 37101 ft 515 kts 118°
2026-05-09 12:26 48.90733 19.26512 37079 ft 514 kts 119°
2026-05-09 12:27 48.87508 19.36205 37072 ft 512 kts 119°
2026-05-09 12:27 48.84330 19.45773 37058 ft 509 kts 119°
2026-05-09 12:28 48.81139 19.55377 37047 ft 507 kts 119°
2026-05-09 12:28 48.77960 19.64915 37019 ft 507 kts 119°
2026-05-09 12:29 48.74789 19.74389 37082 ft 505 kts 119°
2026-05-09 12:29 48.71593 19.83896 37050 ft 507 kts 119°
2026-05-09 12:30 48.68380 19.93416 37074 ft 508 kts 119°
2026-05-09 12:30 48.63551 20.07665 37095 ft 508 kts 120°
2026-05-09 12:31 48.58675 20.21974 37050 ft 510 kts 120°
2026-05-09 12:32 48.55411 20.31510 36989 ft 511 kts 120°
2026-05-09 12:32 48.52148 20.41008 37084 ft 508 kts 120°
2026-05-09 12:33 48.48899 20.50431 37066 ft 508 kts 120°
2026-05-09 12:33 48.45648 20.59821 37075 ft 507 kts 120°
2026-05-09 12:34 48.42375 20.69242 37060 ft 507 kts 120°
2026-05-09 12:34 48.39096 20.78642 37038 ft 506 kts 121°
2026-05-09 12:35 48.35838 20.87953 37070 ft 505 kts 121°
2026-05-09 12:35 48.32556 20.97298 37071 ft 505 kts 121°
2026-05-09 12:36 48.29253 21.06668 37070 ft 506 kts 121°
2026-05-09 12:36 48.25973 21.15941 37070 ft 506 kts 121°
2026-05-09 12:37 48.22661 21.25271 37074 ft 506 kts 121°
2026-05-09 12:37 48.19335 21.34604 37068 ft 507 kts 121°
2026-05-09 12:38 48.16005 21.43920 37081 ft 506 kts 121°
2026-05-09 12:38 48.12687 21.53170 37082 ft 506 kts 121°
2026-05-09 12:39 48.09346 21.62447 37066 ft 506 kts 121°
2026-05-09 12:39 48.05997 21.71717 37079 ft 505 kts 121°
2026-05-09 12:40 48.02665 21.80904 37081 ft 505 kts 121°
2026-05-09 12:40 47.99302 21.90147 37069 ft 504 kts 121°
2026-05-09 12:41 47.95946 21.99338 37070 ft 504 kts 121°
2026-05-09 12:41 47.92600 22.08471 37065 ft 503 kts 121°
2026-05-09 12:42 47.89235 22.17623 37060 ft 503 kts 121°
2026-05-09 12:42 47.85886 22.26701 37060 ft 502 kts 121°
2026-05-09 12:43 47.82515 22.35812 37056 ft 502 kts 121°
2026-05-09 12:43 47.79081 22.44855 37050 ft 500 kts 124°
2026-05-09 12:44 47.75075 22.53217 37056 ft 494 kts 132°
2026-05-09 12:44 47.70686 22.60990 37055 ft 494 kts 133°
2026-05-09 12:45 47.66990 22.67488 37050 ft 495 kts 133°
2026-05-09 12:45 47.62620 22.75415 37050 ft 496 kts 131°
2026-05-09 12:46 47.58297 22.83430 37052 ft 496 kts 131°
2026-05-09 12:46 47.54016 22.91386 37053 ft 496 kts 131°
2026-05-09 12:47 47.49702 22.99359 37049 ft 496 kts 131°
2026-05-09 12:47 47.45367 23.07325 37053 ft 496 kts 131°
2026-05-09 12:48 47.41060 23.15208 37048 ft 495 kts 132°
2026-05-09 12:48 47.36727 23.23119 37052 ft 494 kts 132°
2026-05-09 12:49 47.32396 23.31003 37052 ft 493 kts 132°
2026-05-09 12:49 47.28095 23.38811 37052 ft 493 kts 132°
2026-05-09 12:50 47.23769 23.46643 37054 ft 492 kts 132°
2026-05-09 12:50 47.19443 23.54452 37049 ft 492 kts 132°
2026-05-09 12:51 47.15111 23.62249 37046 ft 491 kts 132°
2026-05-09 12:51 47.10783 23.70019 37045 ft 491 kts 132°
2026-05-09 12:52 47.06438 23.77794 37044 ft 491 kts 132°
2026-05-09 12:52 47.02110 23.85520 37058 ft 490 kts 132°
2026-05-09 12:53 46.97799 23.93192 37060 ft 490 kts 132°
2026-05-09 12:53 46.93453 24.00905 37057 ft 490 kts 132°
2026-05-09 12:54 46.89104 24.08601 37058 ft 489 kts 132°
2026-05-09 12:54 46.84788 24.16218 37062 ft 489 kts 132°
2026-05-09 12:55 46.80435 24.23879 37056 ft 489 kts 132°
2026-05-09 12:55 46.76076 24.31528 37060 ft 490 kts 132°
2026-05-09 12:56 46.71726 24.39143 37065 ft 492 kts 132°
2026-05-09 12:56 46.67361 24.46760 37074 ft 491 kts 132°
2026-05-09 12:57 46.62979 24.54385 37046 ft 490 kts 132°
2026-05-09 12:57 46.58611 24.61968 37062 ft 488 kts 132°
2026-05-09 12:58 46.54259 24.69500 37063 ft 485 kts 132°
2026-05-09 12:58 46.49914 24.77000 37058 ft 484 kts 132°
2026-05-09 12:59 46.45597 24.84432 37050 ft 483 kts 132°
2026-05-09 12:59 46.41252 24.91891 37053 ft 483 kts 133°
2026-05-09 13:00 46.36909 24.99326 37038 ft 483 kts 133°
2026-05-09 13:00 46.32552 25.06766 37048 ft 484 kts 133°
2026-05-09 13:01 46.28211 25.14158 37046 ft 485 kts 133°
2026-05-09 13:01 46.23817 25.21621 37038 ft 486 kts 133°
2026-05-09 13:02 46.19453 25.29013 37032 ft 487 kts 133°
2026-05-09 13:02 46.15038 25.36470 37036 ft 487 kts 133°
2026-05-09 13:03 46.10659 25.43848 37033 ft 486 kts 133°
2026-05-09 13:03 46.06244 25.51266 37040 ft 489 kts 133°
2026-05-09 13:04 46.01828 25.58669 37002 ft 487 kts 133°
2026-05-09 13:04 45.97435 25.66011 37028 ft 482 kts 133°
2026-05-09 13:05 45.93043 25.73328 37034 ft 483 kts 133°
2026-05-09 13:05 45.88669 25.80597 37046 ft 484 kts 133°
2026-05-09 13:06 45.84251 25.87923 37031 ft 485 kts 133°
2026-05-09 13:06 45.79827 25.95241 37028 ft 484 kts 133°
2026-05-09 13:07 45.75429 26.02493 37017 ft 485 kts 133°
2026-05-09 13:07 45.70994 26.09789 37028 ft 484 kts 133°
2026-05-09 13:08 45.66559 26.17065 37030 ft 485 kts 133°
2026-05-09 13:08 45.62151 26.24278 37038 ft 484 kts 133°
2026-05-09 13:09 45.57711 26.31525 37025 ft 485 kts 133°
2026-05-09 13:09 45.53265 26.38762 37027 ft 484 kts 133°
2026-05-09 13:10 45.48824 26.45973 37053 ft 483 kts 133°
2026-05-09 13:10 45.44408 26.53123 37033 ft 483 kts 133°
2026-05-09 13:11 45.39963 26.60305 37049 ft 482 kts 133°
2026-05-09 13:11 45.35523 26.67456 37032 ft 482 kts 133°
2026-05-09 13:12 45.31102 26.74561 37036 ft 481 kts 133°
2026-05-09 13:12 45.26642 26.81708 37038 ft 481 kts 133°
2026-05-09 13:13 45.22193 26.88822 37035 ft 481 kts 133°
2026-05-09 13:13 45.17761 26.95890 37035 ft 481 kts 133°
2026-05-09 13:14 45.13298 27.02989 37037 ft 481 kts 133°
2026-05-09 13:16 44.95449 27.31200 37028 ft 482 kts 133°
2026-05-09 13:16 44.90949 27.38267 37024 ft 482 kts 133°
2026-05-09 13:17 44.86459 27.45301 37022 ft 482 kts 133°
2026-05-09 13:17 44.81985 27.52292 37020 ft 482 kts 133°
2026-05-09 13:18 44.77482 27.59313 37020 ft 482 kts 133°
2026-05-09 13:18 44.72978 27.66316 37021 ft 482 kts 133°
2026-05-09 13:19 44.68493 27.73271 37022 ft 482 kts 134°
2026-05-09 13:19 44.63973 27.80263 37021 ft 482 kts 134°
2026-05-09 13:20 44.59492 27.87178 37018 ft 482 kts 134°
2026-05-09 13:20 44.54967 27.94144 37022 ft 481 kts 134°
2026-05-09 13:21 44.50441 28.01094 37023 ft 481 kts 134°
2026-05-09 13:21 44.45914 28.08027 37028 ft 481 kts 134°
2026-05-09 13:22 44.41424 28.14889 37033 ft 481 kts 134°
2026-05-09 13:22 44.36895 28.21792 37038 ft 481 kts 134°
2026-05-09 13:23 44.25569 28.38980 37046 ft 480 kts 134°
2026-05-09 13:24 44.21116 28.45710 37043 ft 480 kts 134°
2026-05-09 13:24 44.16577 28.52552 37040 ft 480 kts 134°
2026-05-09 13:25 44.12025 28.59399 37041 ft 480 kts 134°
2026-05-09 13:26 44.05225 28.69594 37039 ft 480 kts 134°
2026-05-09 13:26 44.00685 28.76381 37037 ft 480 kts 134°
2026-05-09 13:27 43.96122 28.83186 37043 ft 481 kts 134°
2026-05-09 13:27 43.91550 28.89987 37039 ft 481 kts 134°
2026-05-09 13:28 43.87003 28.96735 37042 ft 482 kts 134°
2026-05-09 13:28 43.82410 29.03534 37046 ft 482 kts 134°
2026-05-09 13:29 43.77822 29.10310 37044 ft 482 kts 134°
2026-05-09 13:29 43.73225 29.17083 37043 ft 482 kts 134°
2026-05-09 13:30 43.68645 29.23817 37044 ft 483 kts 135°
2026-05-09 13:30 43.64027 29.30587 37047 ft 483 kts 135°
2026-05-09 13:31 43.59440 29.37298 37046 ft 483 kts 135°
2026-05-09 13:31 43.54811 29.44052 37045 ft 483 kts 135°
2026-05-09 13:32 43.50966 29.49651 37048 ft 483 kts 135°
2026-05-09 13:32 43.44008 29.59754 37066 ft 484 kts 135°
2026-05-09 13:33 43.39387 29.66444 37044 ft 484 kts 135°
2026-05-09 13:33 43.34726 29.73176 37048 ft 485 kts 135°
2026-05-09 13:34 43.30087 29.79860 37046 ft 485 kts 135°
2026-05-09 13:34 43.25419 29.86570 37045 ft 485 kts 135°
2026-05-09 13:35 43.20744 29.93274 37049 ft 486 kts 135°
2026-05-09 13:35 43.16089 29.99934 37041 ft 486 kts 135°
2026-05-09 13:36 43.11389 30.06643 37059 ft 486 kts 135°
2026-05-09 13:36 43.06699 30.13321 37045 ft 487 kts 135°
2026-05-09 13:37 43.02025 30.19962 37058 ft 486 kts 135°
2026-05-09 13:37 42.97325 30.26624 37061 ft 486 kts 135°
2026-05-09 13:38 42.92627 30.33266 37056 ft 485 kts 135°
2026-05-09 13:38 42.87950 30.39865 37058 ft 485 kts 135°
2026-05-09 13:39 42.83243 30.46492 37037 ft 486 kts 135°
2026-05-09 13:39 42.78539 30.53100 37053 ft 486 kts 135°
2026-05-09 13:40 42.74178 30.60067 37034 ft 486 kts 126°
2026-05-09 13:40 42.72536 30.64059 37052 ft 485 kts 111°
2026-05-09 13:40 42.71725 30.68506 37056 ft 484 kts 100°
2026-05-09 13:41 42.70637 30.77459 37042 ft 477 kts 103°
2026-05-09 13:41 42.68935 30.86275 37060 ft 487 kts 107°
2026-05-09 13:42 42.67010 30.95146 37057 ft 494 kts 107°
2026-05-09 13:42 42.65131 31.04185 37055 ft 497 kts 106°
2026-05-09 13:43 42.63341 31.13172 37030 ft 492 kts 106°
2026-05-09 13:43 42.61574 31.22117 37043 ft 488 kts 106°
2026-05-09 13:44 42.59803 31.30996 37047 ft 487 kts 106°
2026-05-09 13:44 42.58029 31.39818 37047 ft 487 kts 106°
2026-05-09 13:45 42.56230 31.48706 37046 ft 487 kts 106°
2026-05-09 13:45 42.54429 31.57572 37042 ft 488 kts 107°
2026-05-09 13:46 42.52627 31.66404 37044 ft 488 kts 107°
2026-05-09 13:46 42.50812 31.75262 37043 ft 488 kts 107°
2026-05-09 13:47 42.48986 31.84141 37042 ft 488 kts 107°
2026-05-09 13:47 42.47152 31.93016 37043 ft 488 kts 107°
2026-05-09 13:48 42.45326 32.01815 37040 ft 488 kts 107°
2026-05-09 13:48 42.43478 32.10683 37041 ft 488 kts 107°
2026-05-09 13:49 42.41625 32.19535 37038 ft 488 kts 107°
2026-05-09 13:49 42.39780 32.28317 37035 ft 488 kts 107°
2026-05-09 13:50 42.37914 32.37156 37038 ft 488 kts 107°
2026-05-09 13:50 42.36053 32.45940 37034 ft 487 kts 107°
2026-05-09 13:51 42.34178 32.54756 37035 ft 487 kts 107°
2026-05-09 13:51 42.32557 32.63599 37033 ft 488 kts 101°
2026-05-09 13:52 42.31547 32.72675 37038 ft 488 kts 98°
2026-05-09 13:52 42.30686 32.81775 37031 ft 488 kts 98°
2026-05-09 13:53 42.29724 32.90879 37031 ft 488 kts 99°
2026-05-09 13:53 42.28682 32.99906 37036 ft 488 kts 100°
2026-05-09 13:54 42.27608 33.08980 37036 ft 489 kts 100°
2026-05-09 13:54 42.26542 33.17998 37034 ft 489 kts 100°
2026-05-09 13:55 42.25468 33.27092 37032 ft 489 kts 100°
2026-05-09 13:55 42.24390 33.36169 37036 ft 489 kts 100°
2026-05-09 13:56 42.23311 33.45183 37038 ft 489 kts 100°
2026-05-09 13:56 42.22217 33.54252 37040 ft 489 kts 100°
2026-05-09 13:57 42.21112 33.63348 37044 ft 489 kts 100°
2026-05-09 13:57 42.20012 33.72353 37046 ft 489 kts 100°
2026-05-09 13:58 42.18900 33.81401 37048 ft 488 kts 100°
2026-05-09 13:58 42.17780 33.90445 37047 ft 488 kts 100°
2026-05-09 13:59 42.16664 33.99412 37050 ft 487 kts 100°
2026-05-09 13:59 42.15535 34.08425 37053 ft 487 kts 100°
2026-05-09 14:00 42.14785 34.14386 37052 ft 487 kts 100°
2026-05-09 14:00 42.13258 34.26439 37054 ft 487 kts 100°
2026-05-09 14:01 42.12114 34.35401 37054 ft 487 kts 100°
2026-05-09 14:01 42.10958 34.44395 37056 ft 487 kts 101°
2026-05-09 14:02 42.09735 34.53398 37059 ft 487 kts 101°
2026-05-09 14:02 42.08483 34.62322 37062 ft 488 kts 101°
2026-05-09 14:03 42.07227 34.71306 37075 ft 488 kts 101°
2026-05-09 14:03 42.05974 34.80292 37080 ft 488 kts 101°
2026-05-09 14:04 42.04722 34.89277 37094 ft 488 kts 101°
2026-05-09 14:04 42.03544 34.98229 37107 ft 489 kts 100°
2026-05-09 14:05 42.02360 35.07264 37104 ft 490 kts 99°
2026-05-09 14:05 42.01585 35.16379 37102 ft 491 kts 94°
2026-05-09 14:06 42.01208 35.25475 37093 ft 491 kts 93°
2026-05-09 14:06 42.00842 35.34668 37089 ft 491 kts 94°
2026-05-09 14:07 42.00385 35.43843 37073 ft 491 kts 94°
2026-05-09 14:07 41.99874 35.52956 37074 ft 491 kts 95°
2026-05-09 14:08 41.99346 35.62132 37063 ft 491 kts 95°
2026-05-09 14:08 41.98818 35.71304 37064 ft 492 kts 95°
2026-05-09 14:09 41.98291 35.80432 37070 ft 492 kts 95°
2026-05-09 14:09 41.97753 35.89636 37065 ft 492 kts 95°
2026-05-09 14:10 41.96933 36.03405 37076 ft 492 kts 95°
2026-05-09 14:11 41.96380 36.12528 37068 ft 491 kts 95°
2026-05-09 14:11 41.95818 36.21695 37070 ft 491 kts 95°
2026-05-09 14:12 41.95252 36.30789 37082 ft 491 kts 95°
2026-05-09 14:12 41.94674 36.39966 37079 ft 492 kts 95°
2026-05-09 14:13 41.94092 36.49087 37074 ft 492 kts 95°
2026-05-09 14:15 41.91676 36.85797 37084 ft 494 kts 95°
2026-05-09 14:15 41.91054 36.94986 37074 ft 494 kts 95°
2026-05-09 14:16 41.90221 37.04152 37073 ft 495 kts 101°
2026-05-09 14:16 41.88283 37.12905 37084 ft 488 kts 116°
2026-05-09 14:17 41.85107 37.20979 37077 ft 491 kts 118°
2026-05-09 14:17 41.82285 37.29297 37087 ft 493 kts 112°
2026-05-09 14:18 41.79804 37.37951 37090 ft 501 kts 112°
2026-05-09 14:18 41.77169 37.46623 37076 ft 498 kts 113°
2026-05-09 14:19 41.74470 37.55042 37073 ft 493 kts 114°
2026-05-09 14:19 41.72217 37.62056 37079 ft 492 kts 114°
2026-05-09 14:20 41.69078 37.71881 37089 ft 493 kts 114°
2026-05-09 14:20 41.66817 37.78911 37082 ft 494 kts 114°
2026-05-09 14:21 41.62717 37.91605 37078 ft 496 kts 114°
2026-05-09 14:21 41.59985 38.00036 37084 ft 497 kts 114°
2026-05-09 14:22 41.57230 38.08518 37083 ft 498 kts 114°
2026-05-09 14:22 41.54459 38.17020 37095 ft 499 kts 114°
2026-05-09 14:23 41.51676 38.25531 37086 ft 499 kts 114°
2026-05-09 14:23 41.48911 38.33965 37090 ft 500 kts 114°
2026-05-09 14:24 41.46112 38.42471 37086 ft 500 kts 114°
2026-05-09 14:24 41.43312 38.50957 37091 ft 499 kts 114°
2026-05-09 14:25 41.40505 38.59440 37086 ft 499 kts 114°
2026-05-09 14:25 41.37713 38.67848 37078 ft 499 kts 114°
2026-05-09 14:26 41.34910 38.76271 37081 ft 499 kts 114°
2026-05-09 14:26 41.32098 38.84749 37079 ft 500 kts 114°
2026-05-09 14:27 41.29342 38.93180 37079 ft 500 kts 114°
2026-05-09 14:27 41.26558 39.01679 37082 ft 500 kts 114°
2026-05-09 14:28 41.23761 39.10164 37082 ft 501 kts 114°
2026-05-09 14:28 41.20966 39.18596 37088 ft 501 kts 115°
2026-05-09 14:29 41.18054 39.27024 37089 ft 502 kts 116°
2026-05-09 14:29 41.15085 39.35422 37087 ft 502 kts 116°
2026-05-09 14:30 41.12119 39.43835 37098 ft 503 kts 116°
2026-05-09 14:30 41.09180 39.52204 37113 ft 503 kts 116°
2026-05-09 14:31 41.06217 39.60625 37105 ft 503 kts 116°
2026-05-09 14:31 41.03247 39.69035 37104 ft 504 kts 116°
2026-05-09 14:32 41.00442 39.77536 37089 ft 497 kts 109°
2026-05-09 14:32 40.99133 39.86434 37103 ft 500 kts 90°
2026-05-09 14:33 40.99332 39.95669 37081 ft 498 kts 89°
2026-05-09 14:33 40.99059 40.04867 37117 ft 505 kts 94°
2026-05-09 14:34 40.98624 40.14237 37097 ft 511 kts 92°
2026-05-09 14:34 40.98401 40.23625 37111 ft 513 kts 91°
2026-05-09 14:35 40.98171 40.33084 37109 ft 513 kts 91°
2026-05-09 14:35 40.97906 40.42518 37105 ft 512 kts 91°
2026-05-09 14:36 40.97633 40.51862 37117 ft 510 kts 91°
2026-05-09 14:36 40.97356 40.61242 37112 ft 508 kts 91°
2026-05-09 14:37 40.97076 40.70578 37115 ft 507 kts 91°
2026-05-09 14:37 40.96791 40.79829 37116 ft 505 kts 92°
2026-05-09 14:38 40.96498 40.89112 37120 ft 504 kts 92°
2026-05-09 14:38 40.96192 40.98394 37128 ft 503 kts 92°
2026-05-09 14:39 40.95878 41.07625 37136 ft 504 kts 92°
2026-05-09 14:39 40.95556 41.16921 37157 ft 506 kts 92°
2026-05-09 14:40 40.95224 41.26268 37160 ft 508 kts 92°
2026-05-09 14:40 40.94887 41.35594 37141 ft 509 kts 92°
2026-05-09 14:41 40.94539 41.44977 37146 ft 511 kts 92°
2026-05-09 14:41 40.94183 41.54380 37143 ft 511 kts 92°
2026-05-09 14:42 40.93821 41.63737 37144 ft 511 kts 92°
2026-05-09 14:42 40.93450 41.73140 37140 ft 511 kts 92°
2026-05-09 14:43 40.93072 41.82513 37147 ft 510 kts 92°
2026-05-09 14:43 40.92686 41.91893 37155 ft 509 kts 92°
2026-05-09 14:44 40.92295 42.01240 37165 ft 508 kts 92°
2026-05-09 14:44 40.91899 42.10518 37161 ft 508 kts 92°
2026-05-09 14:45 40.91492 42.19880 37169 ft 509 kts 92°
2026-05-09 14:45 40.91079 42.29183 37172 ft 509 kts 92°
2026-05-09 14:46 40.90656 42.38531 37185 ft 510 kts 92°
2026-05-09 14:46 40.90225 42.47910 37202 ft 510 kts 92°
2026-05-09 14:47 40.89786 42.57308 37206 ft 511 kts 93°
2026-05-09 14:47 40.89341 42.66646 37203 ft 512 kts 93°
2026-05-09 14:48 40.88885 42.76059 37216 ft 512 kts 93°
2026-05-09 14:48 40.88422 42.85462 37219 ft 512 kts 93°
2026-05-09 14:49 40.87953 42.94832 37215 ft 513 kts 93°
2026-05-09 14:49 40.87474 43.04244 37218 ft 513 kts 93°
2026-05-09 14:50 40.86991 43.13600 37211 ft 513 kts 93°
2026-05-09 14:50 40.86497 43.23006 37216 ft 512 kts 93°
2026-05-09 14:51 40.85995 43.32414 37215 ft 512 kts 93°
2026-05-09 14:51 40.85485 43.41840 37353 ft 515 kts 93°
2026-05-09 14:52 40.85229 43.46513 37641 ft 514 kts 94°
2026-05-09 14:52 40.84969 43.51222 37961 ft 513 kts 94°
2026-05-09 14:52 40.84708 43.55920 38255 ft 513 kts 94°
2026-05-09 14:52 40.84445 43.60629 38518 ft 512 kts 94°
2026-05-09 14:53 40.84181 43.65319 38787 ft 512 kts 94°
2026-05-09 14:53 40.83919 43.70021 39008 ft 512 kts 93°
2026-05-09 14:53 40.83732 43.74718 39117 ft 513 kts 91°
2026-05-09 14:53 40.83602 43.79386 39180 ft 514 kts 91°
2026-05-09 14:54 40.83327 43.88839 39209 ft 514 kts 92°
2026-05-09 14:54 40.83014 43.98262 39210 ft 511 kts 92°
2026-05-09 14:55 40.82687 44.07637 39214 ft 509 kts 92°
2026-05-09 14:55 40.82358 44.16980 39220 ft 508 kts 92°
2026-05-09 14:56 40.82026 44.26284 39217 ft 507 kts 92°
2026-05-09 14:56 40.81690 44.35567 39225 ft 508 kts 92°
2026-05-09 14:57 40.81342 44.44913 39223 ft 509 kts 92°
2026-05-09 14:57 40.80986 44.54280 39214 ft 510 kts 92°
2026-05-09 14:58 40.80624 44.63606 39209 ft 512 kts 92°
2026-05-09 14:58 40.80251 44.73012 39201 ft 513 kts 92°
2026-05-09 14:59 40.79870 44.82422 39202 ft 512 kts 92°
2026-05-09 14:59 40.79484 44.91757 39187 ft 512 kts 93°
2026-05-09 15:00 40.79088 45.01165 39188 ft 512 kts 93°
2026-05-09 15:00 40.78685 45.10560 39192 ft 513 kts 93°
2026-05-09 15:01 40.78066 45.24638 39173 ft 514 kts 93°
2026-05-09 15:02 40.77712 45.32533 39163 ft 514 kts 93°
2026-05-09 15:02 40.77285 45.41895 39166 ft 513 kts 93°
2026-05-09 15:03 40.76828 45.51312 39162 ft 512 kts 95°
2026-05-09 15:03 40.76061 45.60622 39151 ft 513 kts 97°
2026-05-09 15:04 40.75156 45.69968 39158 ft 513 kts 97°
2026-05-09 15:06 40.71672 46.07369 39123 ft 514 kts 97°
2026-05-09 15:06 40.70788 46.16730 39108 ft 514 kts 97°
2026-05-09 15:07 40.69896 46.26085 39103 ft 514 kts 97°
2026-05-09 15:07 40.69004 46.35371 39104 ft 514 kts 97°
2026-05-09 15:08 40.68097 46.44739 39103 ft 514 kts 97°
2026-05-09 15:08 40.66728 46.58714 39107 ft 514 kts 97°
2026-05-09 15:10 40.62984 46.96080 39108 ft 514 kts 97°
2026-05-09 15:11 40.62029 47.05423 39104 ft 514 kts 97°
2026-05-09 15:11 40.61072 47.14718 39105 ft 514 kts 97°
2026-05-09 15:12 40.60319 47.24085 39100 ft 514 kts 93°
2026-05-09 15:12 40.60095 47.33420 39107 ft 513 kts 90°
2026-05-09 15:13 40.59963 47.42832 39107 ft 513 kts 91°
2026-05-09 15:13 40.59727 47.52238 39121 ft 513 kts 92°
2026-05-09 15:14 40.59421 47.61570 39122 ft 513 kts 92°
2026-05-09 15:14 40.59105 47.70962 39126 ft 513 kts 92°
2026-05-09 15:15 40.58794 47.80367 39126 ft 513 kts 92°
2026-05-09 15:15 40.58481 47.89756 39128 ft 513 kts 92°
2026-05-09 15:16 40.58148 47.99081 39131 ft 513 kts 93°
2026-05-09 15:16 40.57735 48.08467 39127 ft 513 kts 93°
2026-05-09 15:17 40.57290 48.17863 39131 ft 513 kts 93°
2026-05-09 15:17 40.56852 48.27168 39136 ft 513 kts 93°
2026-05-09 15:18 40.56414 48.36543 39138 ft 513 kts 93°
2026-05-09 15:18 40.55971 48.45927 39139 ft 513 kts 93°
2026-05-09 15:19 40.55521 48.55283 39143 ft 513 kts 94°
2026-05-09 15:19 40.55061 48.64641 39137 ft 513 kts 94°
2026-05-09 15:20 40.54359 48.78620 39136 ft 512 kts 94°
2026-05-09 15:21 40.53881 48.87971 39137 ft 512 kts 94°
2026-05-09 15:21 40.53395 48.97333 39131 ft 512 kts 94°
2026-05-09 15:22 40.52905 49.06618 39129 ft 511 kts 94°
2026-05-09 15:22 40.52404 49.15976 39126 ft 511 kts 94°
2026-05-09 15:23 40.51896 49.25314 39121 ft 512 kts 94°
2026-05-09 15:23 40.51384 49.34599 39120 ft 512 kts 94°
2026-05-09 15:24 40.50865 49.43932 39114 ft 512 kts 94°
2026-05-09 15:24 40.50340 49.53289 39115 ft 512 kts 94°
2026-05-09 15:25 40.49822 49.62414 39107 ft 513 kts 94°
2026-05-09 15:25 40.49286 49.71728 39106 ft 513 kts 95°
2026-05-09 15:26 40.48462 49.85774 39103 ft 514 kts 95°
2026-05-09 15:26 40.47903 49.95146 39104 ft 514 kts 95°
2026-05-09 15:27 40.47072 50.04416 39096 ft 511 kts 102°
2026-05-09 15:27 40.44791 50.13201 39110 ft 508 kts 117°
2026-05-09 15:28 40.41646 50.21465 39098 ft 505 kts 117°
2026-05-09 15:28 40.38914 50.29956 39084 ft 511 kts 113°
2026-05-09 15:29 40.36279 50.38680 39114 ft 515 kts 114°
2026-05-09 15:29 40.33508 50.47326 39118 ft 518 kts 115°
2026-05-09 15:30 40.30615 50.56023 39118 ft 520 kts 115°
2026-05-09 15:30 40.27713 50.64720 39116 ft 520 kts 115°
2026-05-09 15:31 40.24833 50.73390 39115 ft 519 kts 115°
2026-05-09 15:31 40.21973 50.81990 39116 ft 517 kts 116°
2026-05-09 15:32 40.19095 50.90615 39122 ft 516 kts 116°
2026-05-09 15:32 40.16224 50.99245 39123 ft 515 kts 116°
2026-05-09 15:33 40.13375 51.07792 39126 ft 515 kts 116°
2026-05-09 15:33 40.10507 51.16364 39125 ft 515 kts 116°
2026-05-09 15:34 40.07622 51.24957 39130 ft 516 kts 116°
2026-05-09 15:34 40.04747 51.33496 39143 ft 516 kts 116°
2026-05-09 15:35 40.01845 51.42092 39136 ft 517 kts 116°
2026-05-09 15:35 39.99038 51.50692 39119 ft 517 kts 113°
2026-05-09 15:36 39.97079 51.59703 39139 ft 517 kts 105°
2026-05-09 15:36 39.95550 51.68899 39141 ft 522 kts 104°
2026-05-09 15:37 39.93945 51.78116 39138 ft 525 kts 106°
2026-05-09 15:37 39.92202 51.87400 39131 ft 527 kts 107°
2026-05-09 15:38 39.90416 51.96663 39132 ft 527 kts 107°
2026-05-09 15:38 39.88641 52.05886 39138 ft 527 kts 107°
2026-05-09 15:39 39.86863 52.15169 39129 ft 526 kts 107°
2026-05-09 15:39 39.85092 52.24386 39130 ft 524 kts 107°
2026-05-09 15:40 39.83322 52.33547 39130 ft 523 kts 107°
2026-05-09 15:40 39.81539 52.42726 39130 ft 522 kts 108°
2026-05-09 15:41 39.79751 52.51884 39129 ft 522 kts 108°
2026-05-09 15:41 39.77965 52.60995 39136 ft 522 kts 108°
2026-05-09 15:42 39.76156 52.70181 39137 ft 523 kts 108°
2026-05-09 15:42 39.74353 52.79299 39135 ft 523 kts 108°
2026-05-09 15:43 39.72541 52.88466 39137 ft 524 kts 108°
2026-05-09 15:43 39.70746 52.97681 39134 ft 525 kts 108°
2026-05-09 15:44 39.68970 53.06816 39132 ft 525 kts 108°
2026-05-09 15:44 39.67165 53.16030 39131 ft 526 kts 108°
2026-05-09 15:45 39.65349 53.25237 39131 ft 526 kts 108°
2026-05-09 15:45 39.63532 53.34399 39130 ft 526 kts 109°
2026-05-09 15:46 39.61694 53.43626 39127 ft 526 kts 109°
2026-05-09 15:46 39.59855 53.52824 39128 ft 526 kts 109°
2026-05-09 15:47 39.58016 53.61978 39124 ft 526 kts 109°
2026-05-09 15:47 39.56472 53.69633 39125 ft 526 kts 109°
2026-05-09 15:48 39.54610 53.78826 39124 ft 526 kts 109°
2026-05-09 15:48 39.52755 53.87949 39126 ft 526 kts 109°
2026-05-09 15:49 39.50881 53.97125 39124 ft 526 kts 109°
2026-05-09 15:49 39.48996 54.06300 39118 ft 526 kts 110°
2026-05-09 15:50 39.47097 54.15401 39118 ft 526 kts 110°
2026-05-09 15:50 39.45177 54.24537 39120 ft 526 kts 110°
2026-05-09 15:51 39.43253 54.33670 39130 ft 526 kts 110°
2026-05-09 15:51 39.41333 54.42757 39114 ft 526 kts 110°
2026-05-09 15:52 39.38427 54.56447 39117 ft 526 kts 110°
2026-05-09 15:53 39.36482 54.65559 39109 ft 526 kts 110°
2026-05-09 15:53 39.34536 54.74640 39115 ft 526 kts 110°
2026-05-09 15:54 39.32570 54.83770 39112 ft 526 kts 110°
2026-05-09 15:54 39.30613 54.92826 39101 ft 526 kts 111°
2026-05-09 15:55 39.28638 55.01928 39109 ft 526 kts 111°
2026-05-09 15:55 39.26660 55.10998 39113 ft 526 kts 111°
2026-05-09 15:56 39.24671 55.20088 39112 ft 526 kts 111°
2026-05-09 15:56 39.22683 55.29138 39114 ft 526 kts 111°
2026-05-09 15:57 39.20676 55.38231 39111 ft 526 kts 111°
2026-05-09 15:57 39.18675 55.47268 39112 ft 526 kts 111°
2026-05-09 15:58 39.16657 55.56342 39105 ft 526 kts 112°
2026-05-09 15:58 39.14632 55.65412 39115 ft 526 kts 112°
2026-05-09 15:59 39.12609 55.74429 39104 ft 526 kts 112°
2026-05-09 15:59 39.10567 55.83500 39110 ft 526 kts 112°
2026-05-09 16:00 39.08528 55.92526 39119 ft 526 kts 112°
2026-05-09 16:00 39.06474 56.01584 39099 ft 526 kts 112°
2026-05-09 16:01 39.04412 56.10639 39115 ft 526 kts 112°
2026-05-09 16:01 39.02356 56.19633 39110 ft 527 kts 113°
2026-05-09 16:02 39.00276 56.28701 39115 ft 526 kts 113°
2026-05-09 16:02 38.96835 56.41992 39112 ft 522 kts 117°
2026-05-09 16:03 38.94330 56.50755 39110 ft 522 kts 117°
2026-05-09 16:03 38.91868 56.59504 39110 ft 523 kts 117°
2026-05-09 16:04 38.89433 56.68313 39109 ft 524 kts 117°
2026-05-09 16:04 38.86997 56.77143 39105 ft 524 kts 117°
2026-05-09 16:05 38.84551 56.85961 39103 ft 524 kts 117°
2026-05-09 16:05 38.82111 56.94708 39103 ft 524 kts 117°
2026-05-09 16:06 38.79647 57.03506 39099 ft 523 kts 118°
2026-05-09 16:06 38.77178 57.12297 39085 ft 522 kts 118°
2026-05-09 16:07 38.74732 57.20980 39081 ft 521 kts 118°
2026-05-09 16:07 38.72263 57.29710 39081 ft 520 kts 118°
2026-05-09 16:08 38.69795 57.38408 39085 ft 519 kts 119°
2026-05-09 16:08 38.67322 57.47093 39088 ft 519 kts 119°
2026-05-09 16:09 38.64857 57.55725 39085 ft 519 kts 119°
2026-05-09 16:09 38.62367 57.64421 39080 ft 520 kts 120°
2026-05-09 16:10 38.59578 57.72824 39082 ft 513 kts 125°
2026-05-09 16:10 38.56490 57.81066 39088 ft 521 kts 125°
2026-05-09 16:11 38.53487 57.89581 39089 ft 529 kts 123°
2026-05-09 16:11 38.50579 57.98252 39081 ft 530 kts 123°
2026-05-09 16:12 38.47625 58.06805 39072 ft 522 kts 124°
2026-05-09 16:12 38.44621 58.15224 39072 ft 522 kts 124°
2026-05-09 16:13 38.41622 58.23629 39081 ft 523 kts 124°
2026-05-09 16:13 38.38876 58.32301 39068 ft 531 kts 117°
2026-05-09 16:14 38.36974 58.41511 39089 ft 542 kts 111°
2026-05-09 16:14 38.35371 58.50882 39086 ft 544 kts 110°
2026-05-09 16:15 38.33644 58.60285 39086 ft 544 kts 112°
2026-05-09 16:15 38.31770 58.69662 39084 ft 545 kts 113°
2026-05-09 16:16 38.29861 58.78947 39090 ft 546 kts 113°
2026-05-09 16:16 38.27942 58.88315 39081 ft 546 kts 112°
2026-05-09 16:17 38.26037 58.97666 39082 ft 546 kts 112°
2026-05-09 16:17 38.24129 59.07016 39081 ft 545 kts 112°
2026-05-09 16:18 38.22213 59.16350 39080 ft 544 kts 112°
2026-05-09 16:18 38.20303 59.25602 39079 ft 544 kts 112°
2026-05-09 16:19 38.18375 59.34897 39091 ft 543 kts 112°
2026-05-09 16:19 38.16440 59.44188 39087 ft 543 kts 112°
2026-05-09 16:20 38.14496 59.53485 39094 ft 543 kts 112°
2026-05-09 16:20 38.12560 59.62704 39093 ft 543 kts 112°
2026-05-09 16:21 38.10601 59.71993 39111 ft 543 kts 112°
2026-05-09 16:21 38.08645 59.81235 39093 ft 543 kts 112°
2026-05-09 16:22 38.06676 59.90494 39095 ft 543 kts 113°
2026-05-09 16:22 38.04706 59.99722 39084 ft 542 kts 113°
2026-05-09 16:23 38.02728 60.08943 39099 ft 541 kts 113°
2026-05-09 16:23 38.00760 60.18086 39092 ft 540 kts 113°
2026-05-09 16:24 37.98767 60.27270 39098 ft 538 kts 113°
2026-05-09 16:24 37.96763 60.36433 39094 ft 538 kts 113°
2026-05-09 16:25 37.94768 60.45519 39096 ft 537 kts 113°
2026-05-09 16:25 37.92757 60.54654 39103 ft 537 kts 113°
2026-05-09 16:26 37.90750 60.63734 39100 ft 537 kts 113°
2026-05-09 16:26 37.88719 60.72884 39099 ft 538 kts 113°
2026-05-09 16:27 37.86694 60.81973 39098 ft 539 kts 113°
2026-05-09 16:27 37.84649 60.91117 39095 ft 540 kts 113°
2026-05-09 16:28 37.82592 61.00274 39090 ft 542 kts 113°
2026-05-09 16:28 37.80521 61.09461 39087 ft 544 kts 113°
2026-05-09 16:29 37.78452 61.18601 39090 ft 545 kts 113°
2026-05-09 16:29 37.76352 61.27842 39095 ft 547 kts 113°
2026-05-09 16:30 37.74238 61.37112 39086 ft 548 kts 113°
2026-05-09 16:30 37.72115 61.46380 39077 ft 549 kts 113°
2026-05-09 16:31 37.69998 61.55591 39087 ft 550 kts 113°
2026-05-09 16:31 37.67858 61.64862 39084 ft 550 kts 113°
2026-05-09 16:32 37.66071 61.72575 39091 ft 550 kts 113°
2026-05-09 16:32 37.63510 61.83395 39087 ft 547 kts 115°
2026-05-09 16:33 37.60682 61.92133 39078 ft 528 kts 127°
2026-05-09 16:33 37.58704 61.95936 39178 ft 511 kts 140°
2026-05-09 16:33 37.56399 61.99284 39128 ft 499 kts 143°
2026-05-09 16:34 37.51937 62.05903 39085 ft 504 kts 138°
2026-05-09 16:34 37.47798 62.13155 39092 ft 516 kts 135°
2026-05-09 16:35 37.43656 62.20594 39081 ft 520 kts 136°
2026-05-09 16:35 37.39453 62.27895 39047 ft 509 kts 137°
2026-05-09 16:36 37.31014 62.42072 39054 ft 506 kts 137°
2026-05-09 16:37 37.27487 62.47973 39052 ft 507 kts 137°
2026-05-09 16:37 37.23253 62.55066 39045 ft 508 kts 137°
2026-05-09 16:38 37.19011 62.62171 39044 ft 509 kts 137°
2026-05-09 16:38 37.14774 62.69255 39041 ft 510 kts 137°
2026-05-09 16:39 37.10504 62.76375 39054 ft 511 kts 137°
2026-05-09 16:39 37.06207 62.83523 39048 ft 513 kts 137°
2026-05-09 16:40 37.01910 62.90657 39038 ft 513 kts 137°
2026-05-09 16:42 36.84642 63.19173 39037 ft 517 kts 137°
2026-05-09 16:42 36.80284 63.26332 39035 ft 517 kts 137°
2026-05-09 16:43 36.75918 63.33487 39021 ft 518 kts 137°
2026-05-09 16:43 36.71536 63.40655 39024 ft 519 kts 137°
2026-05-09 16:44 36.67153 63.47807 39023 ft 520 kts 137°
2026-05-09 16:44 36.62777 63.54935 39027 ft 521 kts 137°
2026-05-09 16:45 36.58364 63.62109 39019 ft 521 kts 137°
2026-05-09 16:45 36.53941 63.69281 39017 ft 522 kts 137°
2026-05-09 16:46 36.49530 63.76421 39025 ft 523 kts 137°
2026-05-09 16:46 36.45081 63.83605 39016 ft 524 kts 137°
2026-05-09 16:47 36.40622 63.90793 39007 ft 524 kts 137°
2026-05-09 16:47 36.36192 63.97920 39003 ft 524 kts 137°
2026-05-09 16:48 36.31734 64.05075 39008 ft 524 kts 137°
2026-05-09 16:48 36.27266 64.12230 39001 ft 524 kts 137°
2026-05-09 16:49 36.22818 64.19340 38995 ft 524 kts 137°
2026-05-09 16:50 36.16098 64.30063 38997 ft 525 kts 137°
2026-05-09 16:50 36.11735 64.37289 38990 ft 527 kts 135°
2026-05-09 16:51 36.07421 64.44634 38993 ft 527 kts 135°
2026-05-09 16:51 36.03105 64.51960 38988 ft 526 kts 136°
2026-05-09 16:52 35.98767 64.59244 39009 ft 526 kts 135°
2026-05-09 16:52 35.94440 64.66468 39018 ft 526 kts 135°
2026-05-09 16:53 35.90071 64.73745 39025 ft 526 kts 135°
2026-05-09 16:53 35.85726 64.80975 39031 ft 526 kts 135°
2026-05-09 16:54 35.81364 64.88221 39053 ft 526 kts 135°
2026-05-09 16:54 35.77002 64.95455 39054 ft 527 kts 136°
2026-05-09 16:55 35.72613 65.02714 39058 ft 527 kts 135°
2026-05-09 16:55 35.68256 65.09907 39091 ft 527 kts 135°
2026-05-09 16:56 35.63865 65.17137 39090 ft 527 kts 135°
2026-05-09 16:56 35.59472 65.24357 39097 ft 527 kts 135°
2026-05-09 16:57 35.55084 65.31557 39106 ft 527 kts 135°
2026-05-09 16:57 35.50672 65.38780 39113 ft 528 kts 135°
2026-05-09 16:58 35.46251 65.46003 39103 ft 528 kts 135°
2026-05-09 16:58 35.41852 65.53174 39106 ft 528 kts 135°
2026-05-09 16:59 35.37427 65.60374 39105 ft 528 kts 135°
2026-05-09 16:59 35.33023 65.67526 39098 ft 528 kts 135°
2026-05-09 17:00 35.28583 65.74719 39109 ft 528 kts 135°
2026-05-09 17:00 35.24145 65.81894 39108 ft 528 kts 134°
2026-05-09 17:01 35.19730 65.89016 39128 ft 528 kts 134°
2026-05-09 17:01 35.15284 65.96178 39113 ft 529 kts 134°
2026-05-09 17:02 35.10837 66.03329 39113 ft 527 kts 134°
2026-05-09 17:02 35.06395 66.10452 39119 ft 526 kts 134°
2026-05-09 17:03 35.01955 66.17561 39123 ft 526 kts 134°
2026-05-09 17:05 34.84018 66.45928 39162 ft 533 kts 134°
2026-05-09 17:05 34.79474 66.53063 39157 ft 533 kts 134°
2026-05-09 17:06 34.74917 66.60209 39165 ft 532 kts 134°
2026-05-09 17:06 34.70375 66.67313 39154 ft 530 kts 134°
2026-05-09 17:07 34.65881 66.74331 39164 ft 529 kts 134°
2026-05-09 17:07 34.61347 66.81393 39153 ft 528 kts 134°
2026-05-09 17:08 34.56820 66.88432 39147 ft 527 kts 134°
2026-05-09 17:08 34.50067 66.98884 39138 ft 527 kts 134°
2026-05-09 17:09 34.45521 67.05876 39148 ft 528 kts 134°
2026-05-09 17:09 34.40958 67.12887 39145 ft 530 kts 134°
2026-05-09 17:10 34.36366 67.19934 39141 ft 533 kts 134°
2026-05-09 17:10 34.31784 67.26956 39120 ft 536 kts 134°
2026-05-09 17:11 34.27154 67.34034 39135 ft 535 kts 134°
2026-05-09 17:11 34.22533 67.41088 39122 ft 535 kts 134°
2026-05-09 17:12 34.17904 67.48139 39121 ft 535 kts 134°
2026-05-09 17:12 34.13304 67.55130 39125 ft 534 kts 134°
2026-05-09 17:13 34.08674 67.62155 39134 ft 533 kts 134°
2026-05-09 17:13 34.04055 67.69149 39126 ft 533 kts 134°
2026-05-09 17:14 33.99419 67.76157 39128 ft 533 kts 134°
2026-05-09 17:14 33.94803 67.83085 39126 ft 532 kts 134°
2026-05-09 17:15 33.90122 67.90015 39116 ft 532 kts 134°
2026-05-09 17:15 33.85436 67.96933 39109 ft 533 kts 134°
2026-05-09 17:17 33.66666 68.24601 39041 ft 543 kts 131°
2026-05-09 17:18 33.61833 68.31694 39016 ft 552 kts 131°
2026-05-09 17:18 33.56931 68.38879 38970 ft 558 kts 131°
2026-05-09 17:19 33.52018 68.46005 38954 ft 553 kts 132°
2026-05-09 17:19 33.47048 68.52977 38934 ft 549 kts 133°
2026-05-09 17:20 33.42067 68.59916 38937 ft 548 kts 132°
2026-05-09 17:20 33.37105 68.66867 38949 ft 549 kts 132°
2026-05-09 17:21 33.32984 68.72648 38933 ft 549 kts 132°
2026-05-09 17:21 33.27219 68.80752 38943 ft 545 kts 130°
2026-05-09 17:22 33.23324 68.86705 38968 ft 547 kts 128°
2026-05-09 17:22 33.18702 68.93984 38987 ft 550 kts 128°
2026-05-09 17:23 33.14064 69.01227 39005 ft 552 kts 129°
2026-05-09 17:23 33.09349 69.08507 39019 ft 553 kts 129°
2026-05-09 17:25 32.95209 69.30255 39021 ft 553 kts 129°
2026-05-09 17:25 32.90494 69.37489 39036 ft 551 kts 129°
2026-05-09 17:26 32.85807 69.44665 39023 ft 550 kts 129°
2026-05-09 17:26 32.81097 69.51832 39013 ft 550 kts 129°
2026-05-09 17:27 32.76368 69.59007 39012 ft 550 kts 129°
2026-05-09 17:27 32.71645 69.66166 38990 ft 551 kts 129°
2026-05-09 17:28 32.66938 69.73293 38991 ft 551 kts 129°
2026-05-09 17:28 32.62197 69.80458 38985 ft 551 kts 129°
2026-05-09 17:29 32.57451 69.87612 38979 ft 551 kts 129°
2026-05-09 17:29 32.52699 69.94768 38946 ft 553 kts 129°
2026-05-09 17:30 32.47964 70.01898 38906 ft 550 kts 127°
2026-05-09 17:30 32.46053 70.05803 38913 ft 547 kts 109°
2026-05-09 17:30 32.45084 70.10132 38906 ft 541 kts 92°
2026-05-09 17:31 32.45070 70.14545 38896 ft 531 kts 77°
2026-05-09 17:31 32.45900 70.18751 38911 ft 521 kts 63°
2026-05-09 17:32 32.54698 70.30944 38863 ft 477 kts 19°
2026-05-09 17:32 32.57657 70.32726 38853 ft 474 kts 18°
2026-05-09 17:33 32.63417 70.36590 38845 ft 479 kts 23°
2026-05-09 17:33 32.69047 70.40861 38843 ft 487 kts 25°
2026-05-09 17:34 32.74748 70.45285 38848 ft 490 kts 25°
2026-05-09 17:35 32.88264 70.63555 38664 ft 520 kts 64°
2026-05-09 17:35 32.89426 70.67645 38252 ft 524 kts 65°
2026-05-09 17:36 32.90546 70.71723 37767 ft 520 kts 65°
2026-05-09 17:36 32.91745 70.75797 37098 ft 521 kts 63°
2026-05-09 17:36 32.93077 70.79834 36561 ft 521 kts 61°
2026-05-09 17:36 32.94436 70.83761 36149 ft 519 kts 61°
2026-05-09 17:37 32.95812 70.87727 35733 ft 517 kts 61°
2026-05-09 17:37 32.97166 70.91696 34815 ft 518 kts 62°
2026-05-09 17:37 32.98500 70.95700 33828 ft 520 kts 63°
2026-05-09 17:37 32.99811 70.99720 32661 ft 521 kts 64°
2026-05-09 17:38 33.01104 71.03750 31526 ft 520 kts 64°
2026-05-09 17:38 33.02386 71.07782 30391 ft 519 kts 65°
2026-05-09 17:38 33.03650 71.11775 29607 ft 509 kts 65°
2026-05-09 17:39 33.06110 71.19547 27952 ft 491 kts 65°
2026-05-09 17:39 33.07309 71.23324 27228 ft 484 kts 65°
2026-05-09 17:39 33.08497 71.27057 26490 ft 476 kts 65°
2026-05-09 17:39 33.09645 71.30666 26090 ft 463 kts 66°
2026-05-09 17:40 33.10762 71.34186 25943 ft 445 kts 66°
2026-05-09 17:40 33.11836 71.37581 25788 ft 429 kts 65°
2026-05-09 17:40 33.12877 71.40869 25525 ft 418 kts 66°
2026-05-09 17:40 33.13898 71.44091 25128 ft 412 kts 66°
2026-05-09 17:41 33.14909 71.47277 24625 ft 410 kts 66°
2026-05-09 17:41 33.15904 71.50413 24216 ft 406 kts 66°
2026-05-09 17:41 33.16893 71.53542 23909 ft 399 kts 66°
2026-05-09 17:41 33.17859 71.56606 23634 ft 391 kts 67°
2026-05-09 17:42 33.18819 71.59639 23114 ft 391 kts 68°
2026-05-09 17:42 33.19777 71.62674 22636 ft 389 kts 68°
2026-05-09 17:42 33.20723 71.65683 22277 ft 384 kts 68°
2026-05-09 17:42 33.21654 71.68656 21891 ft 380 kts 68°
2026-05-09 17:43 33.22576 71.71603 21461 ft 377 kts 68°
2026-05-09 17:43 33.23492 71.74535 21119 ft 373 kts 68°
2026-05-09 17:43 33.24391 71.77413 20826 ft 367 kts 68°
2026-05-09 17:43 33.25270 71.80225 20489 ft 364 kts 68°
2026-05-09 17:44 33.26152 71.83049 20098 ft 362 kts 68°
2026-05-09 17:44 33.27030 71.85862 19706 ft 360 kts 68°
2026-05-09 17:44 33.27903 71.88660 19393 ft 356 kts 68°
2026-05-09 17:44 33.28756 71.91399 19267 ft 346 kts 68°
2026-05-09 17:45 33.29583 71.94056 19136 ft 337 kts 68°
2026-05-09 17:45 33.30392 71.96659 18967 ft 329 kts 68°
2026-05-09 17:45 33.31185 71.99212 18692 ft 326 kts 68°
2026-05-09 17:45 33.31973 72.01745 18359 ft 325 kts 68°
2026-05-09 17:46 33.32750 72.04247 18009 ft 324 kts 68°
2026-05-09 17:46 33.33532 72.06766 17641 ft 322 kts 68°
2026-05-09 17:46 33.34312 72.09281 17252 ft 320 kts 68°
2026-05-09 17:46 33.35084 72.11773 16870 ft 318 kts 68°
2026-05-09 17:47 33.35841 72.14219 16491 ft 317 kts 68°
2026-05-09 17:47 33.36601 72.16681 16117 ft 315 kts 68°
2026-05-09 17:47 33.37360 72.19139 15751 ft 313 kts 68°
2026-05-09 17:47 33.38116 72.21587 15372 ft 312 kts 68°
2026-05-09 17:48 33.38857 72.23990 15023 ft 310 kts 68°
2026-05-09 17:48 33.39603 72.26411 14661 ft 309 kts 68°
2026-05-09 17:48 33.40344 72.28820 14312 ft 307 kts 68°
2026-05-09 17:48 33.41081 72.31215 13977 ft 306 kts 68°
2026-05-09 17:49 33.41814 72.33600 13665 ft 303 kts 68°
2026-05-09 17:49 33.42532 72.35940 13489 ft 294 kts 68°
2026-05-09 17:49 33.43217 72.38177 13341 ft 286 kts 68°
2026-05-09 17:49 33.43891 72.40375 13194 ft 276 kts 69°
2026-05-09 17:50 33.44546 72.42515 12934 ft 271 kts 69°
2026-05-09 17:50 33.45856 72.46791 11797 ft 276 kts 69°
2026-05-09 17:50 33.46516 72.48946 11176 ft 276 kts 69°
2026-05-09 17:51 33.47174 72.51100 10582 ft 275 kts 69°
2026-05-09 17:51 33.47836 72.53269 9908 ft 278 kts 69°
2026-05-09 17:51 33.48510 72.55444 9172 ft 279 kts 66°
2026-05-09 17:51 33.49599 72.57327 8264 ft 283 kts 38°
2026-05-09 17:52 33.51362 72.58329 7546 ft 280 kts 15°
2026-05-09 17:52 33.53212 72.58923 7161 ft 268 kts 13°
2026-05-09 17:52 33.54968 72.59513 6751 ft 259 kts 15°
2026-05-09 17:52 33.56695 72.60159 6192 ft 258 kts 17°
2026-05-09 17:53 33.58388 72.60808 5712 ft 252 kts 16°
2026-05-09 17:53 33.60091 72.61088 5200 ft 246 kts 351°
2026-05-09 17:53 33.61745 72.60866 4734 ft 242 kts
2026-05-09 17:53 33.63279 72.61629 4273 ft 240 kts 39°
2026-05-09 17:54 33.64355 72.63104 3947 ft 232 kts 53°
2026-05-09 17:54 33.65319 72.64613 3703 ft 221 kts 52°
2026-05-09 17:54 33.66346 72.65915 3700 ft 215 kts 37°
2026-05-09 17:54 33.67756 72.66477 3697 ft 218 kts
2026-05-09 17:55 33.69181 72.65976 3686 ft 215 kts 324°
2026-05-09 17:55 33.70079 72.64612 3692 ft 209 kts 288°
2026-05-09 17:55 33.70346 72.62914 3692 ft 206 kts 270°
2026-05-09 17:55 33.69982 72.61293 3681 ft 203 kts 233°
2026-05-09 17:56 33.68865 72.60316 3686 ft 202 kts 196°
2026-05-09 17:56 33.67497 72.60032 3686 ft 200 kts 188°
2026-05-09 17:56 33.66119 72.60125 3670 ft 202 kts 158°
2026-05-09 17:57 33.64367 72.62719 3682 ft 204 kts 140°
2026-05-09 17:57 33.63110 72.63432 3677 ft 201 kts 173°
2026-05-09 17:57 33.61721 72.63509 3697 ft 201 kts 182°
2026-05-09 17:57 33.60326 72.63311 3699 ft 202 kts 188°
2026-05-09 17:58 33.58946 72.63415 3684 ft 201 kts 159°
2026-05-09 17:58 33.57913 72.64511 3684 ft 204 kts 120°
2026-05-09 17:58 33.57454 72.66111 3698 ft 207 kts 107°
2026-05-09 17:58 33.57119 72.67809 3694 ft 209 kts 103°
2026-05-09 17:59 33.56846 72.69522 3501 ft 210 kts 102°
2026-05-09 17:59 33.56590 72.71186 3262 ft 195 kts 102°
2026-05-09 17:59 33.56350 72.72733 3003 ft 182 kts 103°
2026-05-09 17:59 33.56128 72.74149 2797 ft 165 kts 103°
2026-05-09 18:00 33.55927 72.75433 2597 ft 147 kts 103°
2026-05-09 18:00 33.55750 72.76570 2432 ft 133 kts 103°
2026-05-09 18:00 33.55577 72.77669 2265 ft 134 kts 102°
2026-05-09 18:00 33.55404 72.78778 2084 ft 136 kts 101°
2026-05-09 18:01 33.55237 72.79874 1873 ft 131 kts 99°
2026-05-09 18:01 33.55065 72.80961 1771 ft 132 kts 100°
2026-05-09 18:01 33.54923 72.81832 1767 ft 106 kts 100°
2026-05-09 18:01 33.54810 72.82552 1763 ft 70 kts 101°
2026-05-09 18:02 33.54771 72.82955 1767 ft 34 kts 81°
2026-05-09 18:02 33.54823 72.83172 1771 ft 18 kts 71°
2026-05-09 18:02 33.54864 72.83315 1771 ft 18 kts 72°
2026-05-09 18:02 33.54872 72.83435 1771 ft 10 kts 77°
2026-05-09 18:03 33.54926 72.83467 1771 ft 9 kts
2026-05-09 18:03 33.54989 72.83477 1775 ft 9 kts
2026-05-09 18:03 33.55051 72.83473 1774 ft 9 kts 324°
2026-05-09 18:03 33.55070 72.83401 1776 ft 9 kts 280°
2026-05-09 18:04 33.55082 72.83325 1776 ft 9 kts 280°
2026-05-09 18:04 33.55093 72.83249 1776 ft 9 kts 280°
2026-05-09 18:04 33.55105 72.83174 1774 ft 9 kts 280°
2026-05-09 18:04 33.55116 72.83098 1772 ft 9 kts 280°
2026-05-09 18:05 33.55128 72.83021 1774 ft 9 kts 280°
2026-05-09 18:05 33.55139 72.82944 1776 ft 9 kts 280°
2026-05-09 18:05 33.55151 72.82867 1773 ft 9 kts 280°
2026-05-09 18:05 33.55163 72.82786 1775 ft 10 kts 280°
2026-05-09 18:06 33.55175 72.82701 1775 ft 11 kts 280°
2026-05-09 18:06 33.55195 72.82621 1774 ft 10 kts 305°
2026-05-09 18:06 33.55257 72.82601 1776 ft 10 kts 10°
2026-05-09 18:06 33.55323 72.82614 1776 ft 10 kts
2026-05-09 18:07 33.55389 72.82632 1775 ft 10 kts 23°
2026-05-09 18:07 33.55434 72.82690 1776 ft 10 kts 54°
2026-05-09 18:07 33.55473 72.82755 1777 ft 10 kts 54°
2026-05-09 18:07 33.55511 72.82822 1778 ft 10 kts 56°
2026-05-09 18:08 33.55549 72.82888 1777 ft 10 kts 56°
2026-05-09 18:08 33.55579 72.82941 1777 ft 5 kts 59°
2026-05-09 18:08 33.55578 72.82963 1779 ft 4 kts 108°
2026-05-09 18:08 33.55559 72.82984 1778 ft 4 kts 143°
2026-05-09 18:09 33.55529 72.83010 1778 ft 4 kts 144°
2026-05-09 18:09 33.55513 72.83024 1777 ft 1 kts 145°
2026-05-09 18:09 33.55512 72.83024 1777 ft 0 kts 145°